sat.trackr.live / text

‹ back to catalog

HULIANWANG DIGUI-91

NORAD 65999 · 2025-231E

PAYLOAD ACTIVE UNKNOWN

§ Identity

Operator
Country
PRC
Launch date
2025-10-16
Launch site
WSC
Launch vehicle
Mass (kg)
RCS (m²)

External: N2YO · Heavens-Above · Gunter

§ Orbital elements

Epoch: 2026-09-20T13:01:29.788032Z

Period
108.33 min
Inclination
50.0006°
Eccentricity
0.0000465
Mean motion
13.29329870 rev/d
Perigee alt
1,148.9 km
Apogee alt
1,149.6 km
Semi-major
7,527.4 km
B*
4.1114e-5
RAAN
193.6328°
Arg perigee
60.2484°
Mean anomaly
299.8434°
Rev number
4,557

§ Raw data

HULIANWANG DIGUI-911 65999U 25231E   26263.54270588 -.00000105  00000+0  41114-4 0  99902 65999  50.0006 193.6328 0000465  60.2484 299.8434 13.29329870 45576

JSON: /api/v1/satellites/65999 · /tle

For live sub-satellite position, see the globe view (requires WebGL).

§ Visibility from observer

Set your observer location to see the next 7 days of passes ≥ 10°. The values pass through the URL so the page stays shareable.

No JS? Fill the form by hand. The geolocation button needs JavaScript.